User: anonymous   Login
Location: Unspecified
(0.0000°N, 0.0000°E)
Time: 18:26:38
(UTC+00:00)
Language:

Oscar 11 - Orbit

View from above orbital plane
View from above orbital plane
View from above satellite
View from above satellite

Ground track
Ground track

The orbit data is extracted from the following two-line orbital elements,

1 14781U 84021B   17080.64942996 +.00000104 +00000-0 +19128-4 0  9991
2 14781 097.7093 129.5355 0009822 121.9798 238.2372 14.82869896756372
Epoch (UTC): 21 March 2017 15:35:10
Eccentricity: 0.0009822
inclination: 97.7093°
perigee height: 613 km
apogee height: 627 km
right ascension of ascending node: 129.5355°
argument of perigee: 121.9798°
revolutions per day: 14.82869896
mean anomaly at epoch: 238.2372°
orbit number at epoch: 75637

The dashed part of the orbit path shows where the satellite is in the earth's shadow,  

DLR